Regional Weather Roundup
Issued by NWS

Home | Current Version | Previous Version | Graphics & Text | Print | Product List | Glossary On
Versions: 1 2 3 4 5 6 7 8 9 10 11 12 13 14 15 16 17 18 19 20 21 22 23 24 25 26 27 28 29 30 31 32 33 34 35 36 37 38 39 40 41 42 43 44 45 46 47 48 49 50
000
ASUS43 KLSX 010559
RWRMO

WEATHER SUMMARY FOR MISSOURI
NATIONAL WEATHER SERVICE SPRINGFIELD MO
100 AM CDT MON SEP 01 2014

NOTE: "FAIR" INDICATES FEW OR NO CLOUDS BELOW 12,000 FEET WITH NO
       SIGNIFICANT WEATHER AND/OR OBSTRUCTIONS TO VISIBILITY.
       CURRENT SKY AND/OR WEATHER CONDITIONS ARE NOT AVAILABLE FOR
       CHILLICOTHE AND FARMINGTON.

MOZ001>031-035>038-043-044-053-054-010700-
...NORTHERN AND WESTERN MISSOURI...

CITY           SKY/WX    TMP DP  RH WIND       PRES   REMARKS
KANSAS CTY INT RAIN      67  65  93 S16       29.87R FOG
6HR MIN TEMP:  65; 6HR MAX TEMP:  87; 6HR PCP:  1.12;

KANSAS C DTWN  LGT RAIN  68  65  90 S12       29.88R
6HR MIN TEMP:  68; 6HR MAX TEMP:  90; 6HR PCP:  0.55;

ST JOSEPH      RAIN      67  66  97 S9        29.83R
6HR MIN TEMP:  66; 6HR MAX TEMP:  85; 6HR PCP:  0.92;

CHILLICOTHE      N/A     68  66  93 SW5       29.89R
6HR MIN TEMP:  68; 6HR MAX TEMP:  86; 6HR PCP:  0.47;

KIRKSVILLE     LGT RAIN  73  66  78 W18G28    29.86R
6HR MIN TEMP:  73; 6HR MAX TEMP:  81; 6HR PCP: TRACE;


$$
MOZ066>068-077>081-088>096-101>105-010700-
...SOUTHWEST MISSOURI...

CITY           SKY/WX    TMP DP  RH WIND       PRES   REMARKS
SPRINGFIELD    FAIR      76  70  82 S15       29.88R
6HR MIN TEMP:  76; 6HR MAX TEMP:  86;

JOPLIN         FAIR      80  69  69 S18G26    29.84R
6HR MIN TEMP:  80; 6HR MAX TEMP:  88;


$$
MOZ032>034-039>042-045>050-055>058-069>072-010700-
...CENTRAL MISSOURI...

CITY           SKY/WX    TMP DP  RH WIND       PRES   REMARKS
COLUMBIA       FAIR      78  69  73 S9        29.88R
6HR MIN TEMP:  77; 6HR MAX TEMP:  87;

JEFFERSON CITY FAIR      80  69  69 SW6       29.88R
6HR MIN TEMP:  78; 6HR MAX TEMP:  87;

ROLLA          FAIR      75  69  81 S16G23    29.87S
6HR MIN TEMP:  75; 6HR MAX TEMP:  84;

SEDALIA        TSTM      68  65  90 NW10G20   29.96R VSB 1
6HR MIN TEMP:  68; 6HR MAX TEMP:  89; 6HR PCP:  0.13;

OSAGE BEACH    FAIR      79  70  73 W6        29.92R

$$
MOZ051-052-059>065-010700-
...EAST CENTRAL MISSOURI...

CITY           SKY/WX    TMP DP  RH WIND       PRES   REMARKS
ST LOUIS INTL  FAIR      79  71  76 S10       29.88S
6HR MIN TEMP:  79; 6HR MAX TEMP:  86;

SPIRIT OF STL  FAIR      77  71  82 S9        29.86S
6HR MIN TEMP:  77; 6HR MAX TEMP:  84;

ST CHARLES     FAIR      76  71  85 S7        29.86S
6HR MIN TEMP:  76; 6HR MAX TEMP:  84;


$$
MOZ072>076-082>087-097>100-106>115-010700-
...SOUTH CENTRAL AND SOUTHEAST MISSOURI...

CITY           SKY/WX    TMP DP  RH WIND       PRES   REMARKS
CAPE GIRARDEAU MOCLDY    77  72  84 S9        29.95R
6HR MIN TEMP:  76; 6HR MAX TEMP:  82;

FARMINGTON     FAIR      73  70  88 S7        29.96S
6HR MIN TEMP:  73; 6HR MAX TEMP:  75;

POPLAR BLUFF   FAIR      73  69  87 CALM      29.94R
6HR MIN TEMP:  73; 6HR MAX TEMP:  83;

WEST PLAINS    FAIR      74  70  87 S7        29.95F
6HR MIN TEMP:  74; 6HR MAX TEMP:  84;


$$


USA.gov is the U.S. government's official web portal to all federal, state and local government web resources and services.